Flag for Venezuela Weather past 2 weeks in Caracas, Venezuela

Now
79 °F

Passing clouds.


Feels Like: 81 °F
Forecast: 66 / 79 °F
Wind: 5 mph from Northeast

Location: Caracas / Maiquetia Aerop. Intl. Simon Bolivar

Current Time: Jan 25, 2015 at 6:23:00 AM

Latest Report: Jan 25, 2015 at 5:30 AM


Visibility: N/A

Pressure: 29.95 "Hg

Humidity: 74%

Dew point: 70 °F

Location of CaracasLocation

Historic Weather in Caracas — Graph

°F

Caracas temperature yesterday

Maximum temperature yesterday: 90 °F (at 10:30 AM)
Minimum temperature yesterday: 77 °F (at 3:30 AM)
Average temperature yesterday: 83 °F

Past Weeks' High & Low Weather Summary

 TemperatureHumidityPressure
High93 °F (Jan 15, 12:30 PM)94% (Jan 18, 12:30 AM)30.01 "Hg (Jan 18, 12:30 AM)
Low75 °F (Jan 15, 2:30 AM)53% (Jan 15, 12:30 PM)29.89 "Hg (Jan 16, 4:30 PM)
Average83 °F75%29.96 "Hg
* Reported Jan 10 5:30 AM — Jan 25 5:30 AM, Caracas, Weather by CustomWeather, © 2014

Note: Actual official high and low records may vary slightly from our data, if they occured in-between our weather recording intervals... More about our weather records

Advertising

Caracas weather history for previous 24 hours

 ConditionsComfort  
Time TempWeatherWind HumidityBarometerVisibility
5:30 AM
Jan 25
79 °FPassing clouds.5 mph74%29.95 "HgN/A
4:30 AM79 °FClear.No wind74%29.92 "Hg10 mi
3:30 AM81 °FClear.2 mph70%29.92 "Hg10 mi
2:30 AM81 °FClear.1 mph74%29.92 "Hg10 mi
1:30 AM81 °FClear.3 mph74%29.95 "Hg10 mi
12:30 AM82 °FClear.No wind70%29.95 "Hg10 mi
11:30 PM
Jan 24
82 °FClear.1 mph74%29.95 "Hg10 mi
10:30 PM82 °FClear.2 mph74%29.95 "Hg10 mi
9:30 PM81 °FClear.2 mph74%29.95 "Hg10 mi
8:30 PM82 °FClear.2 mph79%29.95 "Hg10 mi
7:30 PM82 °FClear.3 mph79%29.95 "Hg10 mi
6:30 PM82 °FPassing clouds.5 mph79%29.92 "HgN/A
5:30 PM86 °FPassing clouds.2 mph62%29.92 "HgN/A
4:30 PM88 °FPassing clouds.5 mph66%29.92 "HgN/A
3:30 PM88 °FPassing clouds.3 mph66%29.89 "HgN/A
2:30 PM88 °FScattered clouds.3 mph62%29.92 "HgN/A
1:30 PM90 °FPassing clouds.5 mph63%29.95 "HgN/A
12:30 PM90 °FPassing clouds.6 mph63%29.98 "HgN/A
11:30 AM90 °FPassing clouds.5 mph59%30.01 "HgN/A
10:30 AM90 °FPassing clouds.6 mph59%30.01 "HgN/A
9:30 AM86 °FPassing clouds.3 mph62%30.01 "HgN/A
8:30 AM82 °FPassing clouds.1 mph62%30.01 "HgN/A
7:30 AM79 °FScattered clouds.No wind70%29.98 "HgN/A
6:30 AM77 °FPassing clouds.No wind74%29.95 "HgN/A
Weather by CustomWeather, © 2014

See weather overviewHow to use our weather pages